Location: Prague
(50.0830°N, 14.4670°E)
Time: 09:02:12
(UTC+01:00)

STARLINK-1617 - Pass Details

Date: 18 January 2021
Orbit: 545 x 549 km, 53.1° (Epoch: 25 February)

Event Time Altitude Azimuth Distance (km) Brightness Sun altitude
Exits shadow 06:07:09 11° 221° (SW) 1,753 5.9 -16.4°
Maximum altitude 06:10:58 49° 147° (SSE) 714 4.5 -15.8°
Drops below altitude 10° 06:14:58 10° 73° (ENE) 1,821 7.2 -15.2°
Sets 06:17:14 0° 68° (ENE) 2,717 8.1 -14.8°
